Location: Bergfeld
(52.0500°N, 11.7833°E)
Time: 17:37:23
(UTC+00:00)

CZ-4B R/B - Pass Details

Date: 17 February 2020
Orbit: 808 x 882 km, 99.1° (Epoch: 01 April)

Event Time Altitude Azimuth Distance (km) Brightness Sun altitude
Rises 05:04:59 0° 17° (NNE) 3,380 6.5 -12.9°
Reaches altitude 10° 05:07:22 10° 19° (NNE) 2,433 5.8 -12.6°
Maximum altitude 05:12:45 72° 105° (ESE) 859 3.4 -11.7°
Drops below altitude 10° 05:18:01 10° 189° (S) 2,390 5.5 -10.9°
Sets 05:20:20 0° 192° (SSW) 3,315 6.2 -10.6°
